Location: Cherryland
(37.6794°N, 122.1033°W)
Time: 13:21:15
(UTC+00:00)

Cosmos 2285 Rocket - Pass Details

Date: 14 December 2025
Orbit: 969 x 999 km, 74.0° (Epoch: 17 January)

Event Time Altitude Azimuth Distance (km) Brightness Sun altitude
Exits shadow 14:09:08 - 334° (NNW) 3,183 6.3 -12.9°
Reaches altitude 10° 14:10:19 10° 332° (NNW) 2,756 5.9 -12.6°
Maximum altitude 14:16:30 53° 257° (WSW) 1,204 4.2 -11.5°
Drops below altitude 10° 14:22:41 10° 183° (S) 2,754 6.6 -10.3°
Sets 14:25:17 0° 178° (S) 3,701 7.4 -9.9°
